Showing default

MERIDIAN 9, 45254

Orbit data source: Space-Track

MERIDIAN 9, 45254 is a payload satellite owned by VVKO VKS (CIS) that was launched on Thu, 20 Feb 2020 UTC via a SOYUZ-2-1A launch vehicle from the Plesetsk Missile And Space Complex (PKMTR). Payloads include a variety of satellites, spacecraft, and rockets equipped with specific instruments for various scientific and technological missions. These include communications satellites like Starlink; space stations such as the ISS; scientific satellites like the Hubble; Earth observation satellites from companies like Planet Labs, Umbra, and HawkEye 360; GPS; miniature CubeSats for education and research; and military/defense satellites.

Loading next visibility...
MERIDIAN 9 details
Identifier
45254, 2020-015A
Orbit
Molniya
Last TLE update19 hours ago
Origin
Flag of CISVVKO VKS (CIS)
ManufacturerResehetnev ISS
MissionOperational Defense Communications
Bus & MotorMERIDIAN, Unknown motor
Mass~2,000 kg wet, ~2,000 kg dry
Launch date (UTC)
2020-02-20 (5 years ago)
Launch vehicle
SOYUZ-2-1A
Launch site
Plesetsk Missile And Space Complex (PKMTR)
Object type
Payload
Rocket body
Debris
Shape & HBRBox + 2 Pan, Unknown HBR
Radar Cross Section14.304 m², Large (>1 m²)

Expand to show TLE details & history

TLE from 19 hours ago
0 MERIDIAN 9
1 45254U 20015A   24346.15497386 -.00000025  00000-0  00000-0 0  9998
2 45254  64.9895  20.1218 6961711 286.4447  12.1298  2.00619246 35194
Epoch: 2024-12-11T03:43Z
Definitive object data (Epoch: 2024-12-11T03:43:09.741Z)
Latitude-0.00071°
Longitude-115.96139°
Altitude5,084.178 km
Speed7.386 km/s
True Right ascension01h 20m 43s
True Declination0° 00' 03"
Sunlit
Object was in daylight at TLE epoch
Visualization TLE readout
Latitude53.42804°
Longitude24.99201°
Altitude36,763.054 km
Speed1.864 km/s
Apparent Right ascension10h 29m 11s
Apparent Declination45° 17' 37"
Sunlit
Object is in daylight
Visualization observer readout
Local Sidereal Time21:06:51
Azimuth345.664° N
Elevation-2.813°
Doppler factor1
Orbital elements
Apogee altitude38,662.692 km
Perigee altitude1,689.861 km
Semi-major axis26,554.413 km
Eccentricity0.6961711
Inclination64.9895°
RAAN20.1218°
Arg. of periapsis286.4447°
True anomaly73.40323°
Mean anomaly12.1298°
Eccentric anomaly35.0196°
Mean motion0.50158 °/min
BSTARUnknown
Orbital period717.74 mins
Loading maneuver chart data...
Loading historical data...
Loading historical data...
Loading historical data...
Loading historical data...
Loading historical data...
Loading historical data...
Loading historical data...
Other satellites on launch #15 in the year 2020 (2020-02-20 UTC)

MERIDIAN 9 Visibility forecast

Observer location: undefined°, undefined

Span
Click to sort rows by Start time (UTC) header in descending order
Start Az.
Max El. time (UTC)
Max El. Az.
Max El.
End time (UTC)
End Az.
659 mins2024-12-12 03:36:47.604Z197.108° SSW2024-12-12 04:20:47.604Z93.306° ESE44.987°2024-12-12 14:35:47.604Z167.302° S
|